sat.trackr.live / text

‹ back to catalog

STARLINK-2526

NORAD 48378 · 2021-038AB

PAYLOAD ACTIVE UNKNOWN

§ Identity

Operator
Country
US
Launch date
2021-05-04
Launch site
AFETR
Launch vehicle
Mass (kg)
RCS (m²)

Purposes: comms

External: N2YO · Heavens-Above · Gunter

§ Orbital elements

Epoch: 2026-05-24T21:06:33.252192Z

Period
94.01 min
Inclination
53.1617°
Eccentricity
0.0001247
Mean motion
15.31712337 rev/d
Perigee alt
469.8 km
Apogee alt
471.6 km
Semi-major
6,848.8 km
B*
9.2878e-5
RAAN
353.6565°
Arg perigee
93.0734°
Mean anomaly
267.0410°
Rev number
27,889

§ Raw data

STARLINK-25261 48378U 21038AB  26144.87955153  .00002519  00000+0  92878-4 0  99982 48378  53.1617 353.6565 0001247  93.0734 267.0410 15.31712337278895

JSON: /api/v1/satellites/48378 · /tle

For live sub-satellite position, see the globe view (requires WebGL).

§ Visibility from observer

Set your observer location to see the next 7 days of passes ≥ 10°. The values pass through the URL so the page stays shareable.

No JS? Fill the form by hand. The geolocation button needs JavaScript.